Wind_Speed
42 43 45 45 45 44 45 46 46 44 43 42 42 44 43 43 44 44 44 47 48 49 49 49 49 49 47 45 44 43 41 40 37 35 32 31 28 26 24 22 20 18 17 17 17 16 15 14 14 14 14 15 16 16 16 16 15 14 14 13 13 12 13 13 12 17 25 26 28 29 24 26 32 33 33 36 35 36 38 37 36 37 37 37 39
44 45 45 44 45 46 45 44 43 43 43 42 43 44 43 43 43 43 43 45 47 49 50 50 50 49 48 47 45 44 43 41 39 36 35 32 29 27 25 23 21 20 19 18 18 16 15 15 15 14 15 16 16 16 16 15 14 14 13 12 13 13 13 15 16 17 24 28 31 36 33 28 31 34 34 38 39 39 40 39 38 38 38 38 39
45 44 41 42 44 44 42 41 41 42 43 43 44 45 44 43 43 43 44 44 45 47 48 49 49 49 48 47 46 45 43 42 39 38 36 33 30 28 26 24 22 21 20 19 18 17 16 16 16 15 15 15 16 16 15 14 13 13 12 11 11 13 12 15 18 18 24 32 34 37 37 33 32 35 37 40 42 41 41 42 41 40 40 41 41
43 40 40 42 42 41 40 40 40 41 43 45 46 45 43 42 42 43 43 43 44 45 45 46 48 48 47 47 46 45 44 42 40 38 36 33 30 28 26 24 23 22 20 19 18 17 17 17 17 16 15 15 15 15 14 14 13 12 11 10 10 13 13 15 19 21 24 31 36 38 39 39 38 37 37 41 42 41 43 45 44 45 45 43 43
40 40 41 41 39 40 41 40 41 43 45 46 46 45 43 42 43 43 43 42 44 44 44 45 46 47 47 47 46 45 44 42 40 38 36 33 30 28 26 25 24 22 20 19 19 19 18 18 17 15 15 15 15 15 14 14 13 11 10 11 10 12 14 15 19 23 26 31 37 40 40 40 40 37 35 40 43 43 45 48 46 46 47 45 41
39 39 40 39 39 41 41 41 43 45 47 47 46 45 44 43 43 44 44 43 43 43 45 46 46 46 46 45 45 44 43 42 40 38 36 33 30 28 26 25 24 22 21 20 19 19 18 17 17 15 15 15 15 15 15 13 13 12 10 11 11 12 15 18 20 25 30 33 36 40 39 38 39 40 37 39 42 42 45 50 47 40 39 43 42
38 39 40 39 40 41 42 44 46 47 47 46 45 44 44 44 44 45 45 44 44 44 45 47 47 46 45 44 44 44 43 41 40 38 36 34 31 29 28 26 24 23 22 21 19 18 18 17 16 15 15 15 15 15 15 14 13 12 11 11 12 13 17 20 21 24 27 29 31 35 39 40 38 39 39 38 39 39 37 41 45 41 37 39 41
37 40 39 39 41 42 44 46 47 46 44 42 42 42 43 44 45 45 44 45 45 46 46 46 46 45 44 44 44 43 42 41 40 38 36 34 32 30 29 27 25 24 22 21 19 18 17 16 15 15 15 14 14 14 15 14 12 12 13 12 13 16 18 19 20 21 23 26 27 28 33 36 33 33 37 35 34 36 32 32 38 43 43 42 42
37 38 37 39 42 43 43 44 43 41 40 40 40 41 42 43 43 43 44 45 45 46 46 46 45 44 44 43 43 42 42 41 41 39 37 35 33 31 29 28 26 25 23 21 19 18 17 16 15 14 13 12 13 13 14 13 13 13 13 13 14 16 18 18 19 20 22 22 22 22 24 27 26 27 32 30 28 32 34 32 36 40 40 43 49
37 37 37 41 42 41 41 40 39 39 40 41 41 42 42 42 43 43 44 45 44 45 45 45 45 45 44 43 42 42 42 41 41 39 36 34 33 31 30 28 26 24 22 21 19 18 16 15 14 13 13 13 13 15 15 15 14 15 14 13 14 16 18 19 19 21 22 21 21 22 22 24 27 28 31 33 33 35 36 34 36 39 38 35 41
37 38 39 42 41 39 38 37 38 39 40 41 41 42 42 42 43 43 43 43 43 44 45 45 44 45 44 44 43 42 41 41 39 37 35 33 32 31 30 28 26 24 23 21 20 17 15 14 13 13 13 13 14 15 15 15 14 15 15 15 17 18 20 21 21 21 23 23 24 24 23 27 33 33 34 36 36 37 38 37 36 37 35 26 24
36 36 38 39 37 37 37 37 38 40 40 41 42 42 42 42 42 42 42 43 43 44 45 45 44 43 42 42 42 41 41 40 38 36 34 33 32 31 30 28 27 25 23 21 19 16 15 14 14 14 13 12 13 13 13 14 13 13 15 16 18 20 21 23 24 24 25 25 25 26 25 28 33 34 33 34 35 39 41 42 40 37 35 29 23
34 35 36 35 34 35 36 36 38 39 40 41 41 40 41 41 42 43 43 43 43 43 43 43 42 42 41 41 41 40 40 39 36 34 33 32 32 31 30 29 27 25 23 21 19 17 15 15 13 13 13 13 13 14 14 14 13 13 15 16 18 20 21 24 26 27 28 28 29 30 29 28 33 37 38 36 37 40 39 39 42 38 34 34 35
31 32 32 32 33 34 35 36 37 38 38 39 39 39 41 41 41 41 41 41 41 42 42 42 41 41 41 41 40 39 40 38 36 33 32 31 31 31 30 28 26 24 23 20 19 17 16 14 12 12 13 13 14 15 14 15 14 14 16 17 19 21 21 24 26 26 29 30 31 35 36 34 35 38 39 37 36 37 35 36 42 40 36 38 43
29 30 30 31 33 34 36 37 37 36 36 37 37 38 39 39 39 40 40 41 42 42 42 42 41 41 41 40 39 39 39 38 36 34 32 30 30 30 29 27 24 23 21 19 18 17 14 12 11 13 13 13 13 14 13 13 13 15 18 19 20 21 22 24 26 26 29 31 33 36 36 34 35 36 37 37 37 36 37 40 45 45 44 44 46
26 27 28 30 33 35 36 36 34 34 34 35 36 37 38 38 39 39 39 39 39 39 40 40 41 41 40 40 39 39 39 38 37 35 32 30 29 28 27 26 24 22 20 18 17 14 12 11 12 13 13 12 12 13 12 13 14 16 18 19 20 22 24 26 26 27 29 30 30 33 34 35 36 37 37 38 39 41 42 46 50 49 43 37 35
23 25 27 30 33 34 35 34 33 33 34 35 36 37 38 38 38 38 38 37 37 38 39 39 41 41 41 41 40 39 39 39 36 34 33 31 30 29 27 25 24 22 20 18 15 11 10 12 12 12 12 12 12 12 12 13 15 17 19 21 22 24 26 25 22 22 24 27 29 33 34 35 34 34 36 38 40 41 41 41 43 41 32 21 17
22 24 26 28 29 30 32 33 33 33 35 37 38 37 36 36 36 38 38 38 37 38 39 38 39 40 41 42 42 41 41 39 35 33 32 31 31 31 28 25 23 22 20 18 15 12 11 11 11 11 12 12 12 12 12 13 15 17 20 22 22 23 23 20 19 21 25 28 29 29 29 32 35 37 39 39 37 36 34 35 37 36 28 21 18
20 21 22 23 24 26 28 30 31 32 34 34 34 34 34 34 35 36 37 36 35 36 36 36 36 37 39 40 40 40 41 38 34 31 31 30 30 30 28 25 23 22 20 18 15 12 11 10 11 12 13 12 12 13 13 13 16 18 20 21 21 22 22 22 23 27 28 26 25 28 34 39 41 40 39 36 33 31 32 33 35 33 28 27 26
17 18 20 19 21 24 26 28 29 30 30 29 29 31 32 32 33 34 33 33 32 33 33 34 34 34 36 37 37 37 39 37 32 29 30 29 29 30 29 26 25 24 21 19 16 13 11 11 10 11 12 11 12 12 12 13 16 18 20 20 22 24 25 26 27 26 26 26 28 35 40 40 38 35 34 33 30 30 31 31 31 32 29 29 30
15 16 17 18 20 23 26 28 28 29 29 29 29 30 31 32 33 35 34 31 31 30 30 31 31 31 33 34 33 34 37 37 32 29 29 29 29 30 30 29 27 26 23 20 18 15 13 11 9 9 10 10 11 11 12 14 16 19 20 21 22 24 25 26 25 24 27 31 34 35 36 36 34 33 32 32 31 30 30 28 27 29 30 29 30
14 14 15 17 19 22 26 27 28 28 29 30 31 30 31 32 33 34 33 31 31 30 29 29 29 29 30 32 32 33 36 37 34 30 29 29 28 28 30 30 27 26 24 21 18 15 13 10 8 8 9 9 10 11 13 15 16 17 19 19 21 23 23 24 26 27 29 31 31 32 33 33 33 33 32 33 32 28 26 26 26 28 31 33 33
14 13 15 16 18 21 24 26 28 29 29 31 32 31 30 31 32 32 32 31 30 29 29 30 30 29 30 31 31 32 35 36 34 31 29 28 27 26 28 28 25 24 24 22 19 17 14 11 9 8 8 9 10 12 13 14 14 14 16 18 19 21 23 25 27 28 28 28 28 30 31 31 31 33 33 33 30 27 27 29 31 31 33 35 37
14 14 15 16 17 20 22 24 26 28 29 31 31 30 30 31 30 31 31 30 29 27 28 32 32 29 30 32 30 30 31 33 33 31 28 28 28 26 25 25 23 22 22 20 18 18 16 13 11 9 8 9 10 11 12 13 13 13 15 17 18 20 23 25 26 26 26 26 26 28 30 30 30 31 31 30 30 32 35 36 35 35 36 39 42
16 16 16 16 17 19 22 24 26 27 29 31 32 31 31 31 30 30 30 31 30 28 29 34 36 32 29 27 27 27 28 29 30 28 25 25 26 25 24 23 23 21 20 19 18 16 14 13 11 9 8 9 9 11 14 15 14 13 14 16 18 20 21 23 24 25 24 25 25 27 30 31 29 29 30 32 34 37 39 41 41 40 39 41 45
19 18 17 18 19 20 22 23 25 27 28 31 32 32 34 34 32 30 33 34 32 29 31 36 37 32 27 25 27 29 30 31 30 28 25 24 24 24 23 22 21 20 18 18 16 13 11 11 11 11 11 11 11 13 14 14 12 12 14 15 16 18 19 21 23 23 24 25 27 29 31 32 31 32 33 34 37 38 39 41 43 41 39 39 42
20 20 20 20 20 22 24 25 26 28 29 30 30 29 32 34 32 31 36 38 32 27 33 38 35 31 30 31 32 33 33 33 32 31 30 28 26 26 25 23 22 19 17 17 16 14 13 13 13 12 11 11 12 12 12 11 11 11 12 14 16 17 18 19 20 22 24 27 29 31 33 33 33 34 35 36 38 39 40 40 40 40 40 39 36
22 22 21 21 22 24 25 27 27 28 30 31 30 29 29 31 31 32 38 43 37 31 36 42 40 38 39 37 34 34 36 35 35 35 36 35 33 30 28 26 25 22 20 19 18 16 15 13 12 11 11 12 12 11 10 9 9 10 12 14 16 17 18 18 19 22 25 27 29 31 32 33 33 34 35 36 37 38 39 39 38 39 40 36 28
23 22 21 21 22 23 24 26 27 28 28 28 29 30 29 29 29 28 31 38 40 37 39 43 44 43 41 38 37 38 38 37 38 39 39 38 36 34 32 30 27 24 21 20 18 16 14 13 12 12 11 12 11 9 8 8 9 11 13 15 17 18 19 19 21 23 25 26 28 30 31 32 33 33 33 33 35 37 38 37 37 38 37 32 25
21 21 21 20 22 23 23 25 26 27 26 25 25 26 27 27 28 26 26 31 35 35 37 41 44 44 41 39 40 42 43 42 40 37 34 32 31 31 30 27 25 22 20 18 17 17 15 14 13 13 12 11 9 7 6 8 11 13 15 16 17 18 19 20 22 24 25 25 27 29 30 31 32 32 31 32 35 37 36 34 35 35 32 29 26
20 20 21 23 24 25 24 24 24 25 25 24 23 22 22 23 24 24 23 25 28 29 28 30 35 39 40 38 36 36 38 40 37 33 31 30 28 27 26 23 22 22 21 21 19 17 15 15 14 12 11 10 7 7 7 9 12 14 16 18 19 19 19 21 22 23 25 26 27 28 29 30 30 31 31 32 34 36 35 33 33 33 31 29 27
21 21 23 24 25 25 24 23 23 24 23 23 23 22 20 18 18 19 19 21 24 27 25 24 27 30 32 34 35 31 30 32 33 32 32 31 28 27 25 24 23 23 22 21 20 17 16 16 15 12 11 9 7 7 8 10 12 14 15 17 19 20 20 22 23 23 25 26 27 27 28 28 29 31 32 32 33 34 33 32 32 31 32 30 28
26 25 25 23 23 24 24 24 24 25 25 25 24 23 21 18 15 15 17 19 23 25 24 24 27 27 25 29 32 32 32 34 34 33 32 30 29 28 26 24 24 24 23 22 19 17 17 16 14 12 10 8 7 7 9 11 12 14 15 16 18 21 22 23 23 24 25 26 26 27 27 28 30 31 32 32 32 31 31 32 32 32 30 28 27
30 30 28 25 24 25 26 26 26 26 26 26 25 24 24 22 19 19 18 17 20 22 22 24 27 27 26 26 27 30 34 36 35 33 32 30 28 27 26 24 23 22 21 21 19 18 18 16 13 11 9 7 7 8 10 11 12 14 15 16 18 21 22 23 23 25 26 26 26 26 28 29 30 31 31 31 31 30 30 31 31 30 28 27 27
32 32 31 30 28 27 27 27 27 26 25 26 26 24 24 23 23 23 21 18 18 19 21 24 27 28 27 27 28 31 35 35 33 32 31 29 28 28 27 25 23 21 20 20 19 19 17 15 13 10 8 6 7 8 10 11 12 13 15 17 19 21 22 23 24 25 25 25 26 27 29 30 30 30 31 31 31 29 30 31 31 30 29 29 27
30 30 30 30 30 29 27 27 27 27 26 26 25 24 24 23 23 23 23 21 20 20 20 23 27 28 27 28 31 33 34 33 32 31 30 29 29 30 29 26 24 22 21 21 20 18 16 14 12 9 7 6 6 7 9 10 12 13 14 16 18 21 23 24 25 24 24 25 27 29 30 30 31 32 31 31 30 29 31 33 33 32 31 31 29
29 28 27 28 29 28 26 26 27 27 26 25 24 23 23 23 23 23 22 22 22 21 21 24 27 28 28 29 31 32 31 30 29 29 28 27 28 30 31 28 25 23 22 21 19 17 15 13 11 8 6 5 5 6 8 10 11 13 14 16 18 21 23 23 23 24 25 27 28 29 30 30 32 33 32 30 30 30 32 34 34 33 33 33 31
32 31 30 29 27 26 26 25 25 25 24 24 24 24 23 23 24 24 23 23 23 23 23 26 28 28 29 31 32 32 32 30 28 27 27 27 28 29 29 26 24 22 21 20 18 16 14 12 10 7 5 5 5 6 8 10 12 13 15 17 19 21 22 23 24 25 26 28 28 29 30 31 33 33 32 30 30 31 33 34 34 33 33 31 28
31 31 32 31 28 26 25 24 24 24 24 24 24 24 24 23 23 24 23 23 24 24 25 26 27 27 31 34 35 35 33 30 29 29 29 28 28 27 26 24 22 21 20 19 17 15 13 11 9 7 5 4 5 6 8 10 12 14 15 17 20 21 23 24 26 27 27 28 29 29 30 31 33 34 33 31 31 33 35 35 34 33 32 31 29
29 28 29 29 26 25 25 24 24 25 25 25 25 25 24 24 24 25 24 24 24 24 26 26 25 28 33 36 38 38 33 29 29 31 30 29 27 26 24 23 22 21 20 19 17 15 13 11 9 7 5 4 5 6 8 10 12 14 16 17 19 21 23 24 26 28 28 29 30 30 31 32 33 34 32 31 33 36 36 35 35 35 33 32 32
29 26 26 26 25 24 23 24 24 25 25 25 25 25 25 25 25 25 25 24 24 24 24 24 25 29 33 35 37 38 34 30 30 31 30 28 27 26 24 23 23 22 20 18 16 14 12 10 8 6 5 5 6 7 8 10 12 14 16 18 19 21 23 24 26 28 29 30 31 31 31 33 34 33 32 33 35 37 37 36 36 36 34 34 34
28 26 24 23 24 24 22 22 23 24 25 25 25 25 25 26 26 25 24 24 24 24 23 23 25 29 30 30 32 35 34 32 32 32 30 29 28 26 24 23 22 20 19 16 15 13 11 9 7 6 5 5 6 7 9 11 12 14 16 18 19 21 23 24 26 28 29 30 31 32 33 35 35 32 32 35 37 37 37 37 37 36 34 34 33
27 25 23 22 24 24 23 23 23 23 24 24 24 25 26 25 25 25 25 25 25 26 25 25 26 29 29 28 30 34 34 33 33 32 30 29 28 26 24 23 21 19 17 15 13 12 10 8 6 5 4 5 6 8 10 11 12 14 16 18 20 22 23 25 27 28 29 31 32 34 37 38 35 31 33 37 37 37 37 37 36 35 34 34 33
26 23 21 22 22 22 21 22 22 22 23 23 23 24 26 25 25 25 26 26 26 27 27 28 30 31 29 28 30 33 33 32 31 30 29 28 27 25 24 22 20 18 16 14 12 11 9 6 5 4 5 5 7 9 10 11 12 13 15 18 20 22 24 25 27 29 32 33 36 40 43 40 33 31 35 37 37 37 37 37 36 36 35 34 32
23 20 19 19 19 19 20 21 21 22 22 23 22 23 24 25 25 26 27 27 26 26 26 28 30 30 28 28 31 32 31 30 30 29 28 27 26 25 23 21 19 17 16 14 12 10 7 5 5 5 6 7 8 9 10 10 11 12 14 16 19 22 24 25 27 31 33 35 39 43 43 36 31 33 36 37 37 37 37 37 36 36 35 34 31
20 19 19 18 18 18 19 20 21 22 22 22 21 21 22 23 24 25 26 26 27 26 26 28 29 28 26 27 30 31 30 29 29 28 27 27 26 24 23 21 19 17 15 13 11 8 6 5 6 7 7 8 9 9 9 9 10 11 12 15 18 21 22 24 27 31 33 36 40 41 36 31 32 36 37 37 38 38 38 37 37 36 34 34 33
17 17 17 17 17 17 18 19 20 20 20 20 20 20 21 22 23 24 25 26 27 27 26 27 27 26 26 28 30 30 29 28 28 28 27 27 25 23 22 20 18 16 14 12 9 7 6 6 7 8 9 9 10 10 10 10 10 11 12 14 17 19 20 23 26 29 33 37 39 35 31 31 34 36 36 37 38 38 38 38 37 36 35 35 34
15 16 17 18 18 18 18 19 20 20 19 20 20 20 21 22 23 23 24 25 26 26 26 27 27 27 27 28 29 30 29 28 28 28 27 26 24 23 21 19 17 15 13 10 8 6 6 6 7 9 9 10 10 11 11 11 12 12 13 14 16 17 19 22 25 28 33 37 35 31 30 33 34 34 35 37 38 38 38 37 36 36 36 35 34
16 17 18 18 18 19 19 20 20 20 20 21 21 20 21 22 23 24 25 26 26 28 30 29 29 29 30 30 30 30 30 29 28 28 27 25 23 22 20 18 16 13 11 9 7 6 6 7 8 9 9 10 11 11 12 13 13 14 15 15 16 17 18 21 25 29 33 35 32 29 31 34 34 32 34 37 38 38 38 37 37 37 36 34 33
18 18 19 19 19 20 20 20 21 21 21 22 22 21 21 22 24 26 29 29 29 30 32 32 32 32 32 32 32 31 30 29 29 28 26 24 23 21 18 16 14 12 10 9 8 7 7 7 8 9 9 10 11 11 12 13 14 15 16 16 16 18 21 23 26 29 32 32 31 31 33 34 33 32 33 36 38 38 38 38 37 37 35 33 33
20 20 20 20 20 20 20 21 21 21 21 22 23 22 23 25 28 31 32 33 33 32 32 32 33 33 33 32 32 31 30 29 28 27 25 23 21 19 17 15 13 11 10 8 7 6 7 7 8 9 10 11 11 11 12 13 14 14 15 16 17 19 22 24 26 28 30 30 30 32 33 33 32 31 33 36 37 38 38 38 37 36 34 33 33
Wind_Direction
217 217 218 217 218 217 218 217 216 215 215 216 217 218 217 216 214 211 208 206 205 205 206 206 205 203 202 203 203 203 203 202 203 203 203 204 204 203 202 202 201 200 200 203 206 211 216 220 227 234 240 246 252 255 256 258 260 259 260 264 266 268 271 269 271 282 285 284 285 285 286 291 295 297 299 300 303 305 305 304 304 304 303 302 302
219 220 219 217 218 218 218 217 215 214 214 214 217 218 218 216 214 212 210 208 206 205 205 204 203 202 202 202 202 203 203 203 203 203 203 203 201 201 201 200 199 199 199 203 207 210 215 221 227 233 239 245 249 253 256 257 258 260 262 267 271 272 271 269 272 282 288 289 292 293 295 297 298 299 302 303 305 308 307 305 304 304 304 302 301
222 221 219 219 220 219 218 216 215 214 213 214 216 218 218 216 213 212 211 209 206 206 205 203 201 201 201 201 201 202 203 203 203 203 203 203 201 200 201 200 201 201 201 203 206 210 214 220 227 231 236 243 248 250 253 255 255 259 265 269 273 274 270 270 273 277 287 292 294 296 298 301 300 301 305 306 307 308 307 305 305 304 303 303 300
223 221 220 220 220 218 217 216 214 213 213 215 216 216 216 214 213 212 211 208 206 205 205 203 201 200 199 200 200 201 202 203 203 203 204 204 203 202 201 201 202 203 204 204 205 210 215 219 225 230 235 240 246 250 250 252 253 255 265 270 272 274 273 271 271 274 283 290 292 294 297 300 300 301 305 306 306 307 307 306 305 304 303 302 299
223 221 220 220 218 217 216 214 213 213 214 215 215 215 213 212 211 210 209 209 207 204 202 202 202 200 199 200 200 200 202 203 203 203 204 204 204 204 202 201 202 202 203 204 206 211 216 220 224 228 233 237 242 247 248 248 249 252 261 268 270 273 275 273 274 276 277 282 289 293 296 298 299 299 304 307 306 307 308 306 304 304 304 302 299
222 221 220 219 217 216 215 213 214 215 215 215 214 213 211 210 210 209 207 208 206 203 202 201 202 201 201 201 200 200 202 203 203 204 203 202 202 202 201 201 201 201 202 204 208 213 216 221 225 227 231 236 239 244 246 245 246 250 256 264 269 272 274 275 276 277 275 275 282 290 293 297 299 299 303 307 305 305 307 306 303 302 302 301 300
221 220 219 218 217 216 214 214 215 216 216 215 213 211 209 208 208 207 206 205 204 203 203 201 201 202 202 201 202 202 202 203 204 204 203 202 200 200 200 199 199 199 202 205 208 214 219 221 225 229 231 236 240 242 245 245 245 251 255 261 270 273 273 273 271 269 268 269 274 281 287 292 294 294 299 305 302 300 302 303 303 304 304 299 297
220 219 218 217 218 217 216 216 216 216 215 214 212 210 208 207 207 205 204 203 203 204 203 202 200 200 201 202 203 203 203 203 203 203 202 201 200 199 199 198 197 198 200 205 208 212 219 222 226 231 233 236 241 243 245 246 246 250 256 262 270 270 265 261 259 257 258 263 269 275 282 287 289 290 296 302 299 296 299 299 297 300 303 300 296
219 219 217 218 219 218 217 217 216 215 213 212 210 209 207 206 204 203 202 202 203 203 203 202 200 199 200 202 202 203 203 204 204 203 202 200 199 199 199 197 197 198 198 201 206 211 217 222 226 231 233 234 236 237 239 241 241 246 255 261 261 257 253 251 251 254 256 260 266 274 278 281 284 288 293 296 292 293 299 300 293 295 299 298 296
218 218 217 220 221 219 217 216 213 211 210 209 209 207 205 204 202 201 201 201 200 201 201 201 200 199 199 199 201 202 203 204 204 204 203 201 199 198 197 197 196 197 196 197 202 208 215 222 226 227 228 227 227 231 235 237 240 246 252 255 253 250 252 257 257 259 263 265 269 276 279 280 284 289 290 293 296 297 300 300 296 296 298 295 294
218 217 217 220 220 217 214 212 210 209 208 207 207 205 203 201 200 199 199 198 199 199 199 199 200 200 199 199 200 200 202 204 204 204 203 202 201 197 195 195 194 195 197 197 200 205 208 216 220 219 218 221 225 231 236 240 243 248 251 253 256 258 259 263 265 265 269 272 273 275 277 281 286 289 290 293 299 300 299 297 294 294 294 291 291
218 219 220 220 217 214 211 208 207 207 206 205 205 203 201 199 197 197 197 197 197 197 198 199 199 200 199 199 199 199 201 203 202 201 202 202 202 199 195 194 193 195 198 198 199 199 200 205 209 214 215 217 223 230 236 241 243 249 255 257 260 261 262 264 268 271 271 273 276 275 276 282 287 289 291 294 298 297 294 292 289 287 286 285 281
218 219 221 219 214 211 208 205 205 205 204 204 202 199 198 196 196 196 196 196 195 195 197 198 198 198 198 198 198 199 201 202 199 198 199 200 200 199 196 196 195 196 197 198 197 195 196 199 201 211 218 217 222 230 235 241 246 252 257 260 261 263 265 266 267 270 273 276 279 279 280 284 286 286 289 291 292 291 289 287 287 285 281 279 277
218 219 219 216 212 209 206 205 205 204 203 201 198 196 196 196 196 195 194 193 193 194 195 196 196 198 198 198 198 199 201 200 196 195 195 196 199 198 197 196 195 197 197 196 196 195 196 199 198 205 217 220 224 230 235 243 251 256 259 261 264 266 268 268 268 270 273 274 276 277 278 278 278 281 287 289 287 285 284 284 286 285 281 279 281
219 219 216 213 209 206 205 204 203 202 200 197 195 195 195 194 194 194 193 193 194 194 195 195 196 196 197 197 197 198 201 198 193 192 191 191 194 196 195 194 193 195 195 195 197 198 197 198 202 210 219 225 230 234 241 249 254 259 262 262 266 269 270 270 270 271 272 271 271 273 276 278 279 283 287 290 289 286 285 285 287 290 290 290 290
221 218 215 211 208 206 205 202 201 198 195 193 193 194 194 194 193 192 192 192 193 194 194 195 195 195 196 197 196 198 200 196 191 191 190 186 188 191 193 192 191 192 193 193 196 198 199 204 211 219 226 231 238 241 246 254 259 263 266 268 271 273 273 273 274 275 274 274 274 276 280 283 285 286 288 290 292 292 294 294 292 293 294 292 290
225 221 217 214 211 208 205 201 198 195 192 192 193 194 194 193 192 190 189 190 191 193 194 195 196 196 195 196 196 197 198 193 189 189 189 185 186 189 190 190 190 192 192 192 195 197 203 211 214 221 231 238 245 250 253 261 266 268 272 275 275 274 275 278 279 277 276 278 280 281 283 284 285 288 290 292 292 294 296 294 291 292 293 287 284
231 225 222 220 214 210 205 201 198 194 193 194 194 194 193 192 192 191 190 190 191 193 194 194 195 196 196 197 198 198 197 191 187 188 187 185 186 188 188 187 187 190 190 193 202 205 205 212 217 224 237 244 250 258 263 267 271 273 275 277 277 276 280 284 284 283 283 284 284 281 280 283 287 291 292 292 291 292 290 285 285 288 288 282 284
237 232 230 227 219 214 208 203 200 197 196 197 195 193 191 191 190 190 191 191 192 192 193 193 194 196 198 198 199 200 196 189 186 187 185 184 187 188 185 183 184 188 190 192 199 203 202 210 219 227 237 247 255 262 267 269 272 275 278 281 282 283 286 289 288 288 288 286 285 284 285 287 290 293 293 292 292 290 285 280 280 279 277 278 283
249 240 235 229 222 217 210 205 203 200 198 197 195 193 191 190 188 188 189 190 191 191 192 193 195 196 198 198 199 199 195 187 184 186 183 183 188 187 184 183 185 186 189 191 192 193 197 205 214 223 235 247 258 264 268 269 274 280 284 287 287 287 289 291 290 289 289 289 290 291 292 293 294 295 294 292 291 290 285 280 276 273 272 276 280
265 250 238 229 223 216 210 207 205 202 199 196 194 193 192 190 188 187 187 188 188 189 191 193 194 196 197 196 196 197 194 187 183 185 184 184 187 188 186 187 187 186 186 189 190 189 193 198 202 217 234 248 258 263 267 273 278 285 287 287 287 289 292 294 293 292 293 295 296 296 296 297 297 296 295 293 292 291 286 281 276 273 273 274 278
270 254 240 232 224 215 210 207 204 202 200 195 192 192 191 190 189 186 185 185 185 186 189 190 191 192 193 194 195 195 193 188 185 185 186 184 185 189 190 189 188 187 184 186 189 188 187 190 195 213 231 242 253 261 269 278 283 285 286 286 289 293 296 296 295 297 299 300 301 299 298 298 298 297 298 297 296 293 289 284 282 280 278 276 277
269 252 240 231 224 215 209 206 203 201 199 196 192 190 188 187 187 185 184 183 182 184 187 187 187 187 188 191 194 194 193 190 187 184 185 185 184 187 190 189 188 188 186 185 187 186 186 192 200 211 224 236 252 264 274 282 285 285 287 290 295 298 297 295 297 302 304 303 300 297 296 296 298 299 300 301 299 297 295 292 289 285 282 280 279
271 255 243 231 223 215 208 206 204 201 199 195 191 188 185 184 184 185 185 183 182 183 186 185 184 183 184 187 191 193 192 191 189 185 184 186 186 184 186 186 186 188 188 184 185 188 195 207 212 212 222 237 256 269 274 276 279 283 291 297 299 298 296 298 304 307 305 301 297 295 296 298 299 300 300 300 301 301 298 295 292 288 286 285 284
266 255 244 231 223 214 206 204 204 202 199 195 191 188 185 182 183 185 186 186 185 185 183 184 184 183 181 181 184 187 188 187 188 186 184 187 188 185 184 184 185 187 188 188 190 194 200 207 208 209 222 239 255 264 266 268 274 284 294 297 296 296 299 305 309 307 301 299 297 296 297 300 300 300 300 300 301 302 301 299 298 295 292 291 290
259 252 240 228 221 212 205 202 200 201 201 199 198 194 189 185 185 187 189 188 187 184 182 183 185 184 180 177 179 183 185 184 184 184 184 185 188 187 186 186 184 185 188 189 190 190 190 194 200 208 222 240 253 260 265 271 278 284 290 294 296 300 305 308 307 303 299 297 297 296 298 300 301 301 303 303 302 302 303 302 300 298 297 296 293
255 247 236 226 217 209 205 201 198 199 200 200 202 201 196 192 189 189 190 188 185 185 185 183 182 183 180 178 179 181 183 182 181 182 182 182 183 185 186 186 183 182 182 180 179 182 187 192 201 215 230 244 251 255 262 270 280 287 293 301 305 306 307 305 301 298 295 294 296 296 298 301 303 304 305 305 303 303 304 302 298 296 299 298 293
255 247 237 225 214 209 206 202 199 199 199 200 201 202 201 199 198 198 195 189 187 188 187 184 184 185 182 179 178 178 181 183 182 181 181 181 181 182 183 183 181 181 180 179 180 187 193 198 208 225 240 244 245 250 258 270 288 300 305 310 310 307 309 307 302 298 297 297 297 298 300 303 304 304 305 304 302 303 304 301 296 295 299 299 292
255 247 238 224 215 211 206 203 202 200 200 201 203 204 204 205 208 213 209 201 198 196 191 188 190 189 185 182 179 176 179 185 186 184 182 181 179 180 181 180 182 183 182 182 186 189 193 202 215 224 230 234 238 248 266 287 302 309 310 311 309 310 314 313 307 303 302 301 299 299 302 303 303 303 303 302 301 302 303 300 298 297 299 296 289
252 242 234 224 217 212 206 204 203 201 200 202 204 207 209 210 214 220 222 217 212 207 201 197 195 191 188 187 185 183 185 187 185 182 180 178 177 178 179 179 181 181 178 180 186 189 192 202 212 215 218 226 238 255 281 300 307 309 312 312 312 315 318 314 308 305 303 301 300 300 301 301 300 302 302 301 301 302 302 299 298 299 299 296 291
247 240 233 225 220 213 207 204 202 200 201 202 201 203 209 212 216 220 222 220 215 211 208 204 198 193 190 187 185 186 187 184 179 176 175 175 174 175 174 175 176 176 176 180 184 188 194 201 204 207 213 223 240 264 284 296 299 302 307 311 316 320 316 308 306 305 303 301 300 299 298 297 297 299 300 300 301 301 301 302 301 300 299 296 293
249 245 238 230 223 215 209 205 200 197 198 199 199 199 199 202 209 215 218 215 208 205 206 203 196 193 190 185 181 178 177 174 171 171 171 172 173 173 173 174 173 172 176 183 186 188 195 201 202 204 213 225 241 262 278 287 291 294 299 306 314 316 310 305 306 305 301 301 300 298 297 296 296 298 299 300 300 300 301 303 304 302 300 297 294
254 251 246 235 223 215 209 204 201 198 196 195 195 195 193 193 193 194 199 201 200 200 202 198 192 189 186 183 179 175 171 167 167 169 170 171 173 172 172 173 171 169 175 184 188 190 194 199 203 207 215 229 249 267 280 286 289 294 298 301 306 308 308 308 308 304 302 301 299 296 296 298 299 300 300 299 299 299 301 304 305 304 302 298 295
261 256 250 238 224 215 210 206 203 201 198 196 194 193 194 193 188 181 179 183 190 196 198 195 190 185 179 176 174 169 166 165 166 169 171 171 171 169 167 166 165 169 181 187 186 189 194 199 205 212 219 235 256 273 285 290 292 298 303 304 304 305 308 309 308 305 304 303 299 296 299 301 301 301 301 301 301 300 301 304 306 305 302 300 298
264 259 253 242 229 219 215 210 205 202 199 196 195 194 192 190 187 184 182 180 180 184 186 185 183 179 175 173 170 166 164 164 166 168 169 168 167 165 162 160 160 169 182 186 184 188 196 201 207 213 221 240 260 274 286 294 300 305 307 308 308 307 307 307 306 306 305 302 300 300 302 302 302 301 300 300 300 302 304 306 306 304 302 300 299
265 259 253 243 232 223 218 212 206 203 200 196 194 193 190 188 187 186 185 184 179 175 172 171 172 171 170 170 168 165 164 165 166 166 167 168 168 166 164 164 168 173 178 181 184 190 196 202 209 214 224 243 265 280 289 298 307 311 311 311 308 306 306 306 307 306 303 301 302 303 303 302 302 303 302 300 300 303 306 307 306 304 301 300 298
268 261 253 243 232 224 218 212 206 203 199 193 190 188 187 188 187 183 182 181 177 170 164 160 161 162 163 166 166 164 164 164 163 163 165 166 169 173 175 176 178 179 179 182 187 191 196 203 209 213 224 246 268 285 296 306 314 316 315 313 309 306 306 306 304 303 302 303 304 305 304 304 304 304 304 302 303 306 309 308 307 304 302 300 299
264 258 253 245 233 221 214 208 202 198 193 189 188 187 185 185 184 181 180 177 171 167 163 161 161 160 160 162 163 162 160 158 159 161 164 167 172 180 185 186 186 186 186 189 192 194 196 202 205 207 222 248 272 291 303 313 317 317 317 314 311 311 310 307 306 307 307 306 306 306 306 305 306 307 306 304 305 309 311 309 308 306 304 303 302
262 256 253 246 232 217 210 202 193 190 188 186 187 186 183 182 181 179 178 174 170 168 166 165 165 164 162 160 160 159 158 158 159 160 161 166 174 182 188 190 191 191 192 194 195 194 196 198 201 207 220 244 276 295 305 314 316 316 314 312 311 313 314 312 311 311 310 308 307 308 306 305 306 308 307 305 308 311 311 310 309 307 305 305 304
263 258 252 244 228 213 205 197 190 188 187 185 185 184 182 182 181 178 175 172 169 169 168 166 166 166 164 162 162 161 159 158 159 159 161 166 174 181 186 189 190 191 193 195 195 194 193 193 197 206 218 245 277 293 303 310 313 312 312 312 311 312 314 314 313 311 310 310 309 307 306 307 309 309 307 307 311 313 312 310 309 307 305 304 304
260 256 250 238 221 207 198 193 191 190 187 185 184 183 182 181 179 176 173 170 168 167 166 164 164 165 165 164 164 163 160 156 157 161 165 170 175 180 184 187 190 191 191 192 191 191 190 191 198 210 225 251 274 290 299 305 308 309 310 313 314 313 313 314 314 312 312 311 309 307 307 310 311 309 308 311 314 314 312 311 309 308 307 306 305
254 249 243 228 210 199 194 192 191 189 185 184 184 182 180 178 175 172 169 167 164 161 158 156 158 163 163 161 161 161 160 157 159 164 168 172 176 179 182 185 188 188 188 189 189 190 191 192 200 218 241 261 277 290 295 299 304 307 310 314 316 314 312 313 314 314 313 311 308 307 308 311 312 310 311 315 316 315 313 312 311 309 309 308 308
257 245 231 213 201 195 192 189 186 183 182 184 183 179 175 173 169 166 164 161 160 158 154 153 156 160 159 155 156 160 160 160 163 167 169 172 176 179 181 183 183 183 185 189 190 191 195 197 204 229 259 275 285 291 292 297 304 308 313 317 317 314 313 314 315 315 314 310 307 308 310 312 312 313 316 317 317 315 314 313 311 311 311 309 309
256 239 219 201 193 190 186 183 180 179 179 177 174 170 169 166 163 161 160 159 159 159 157 156 158 159 156 154 157 161 162 164 167 169 170 172 176 178 179 180 179 179 184 190 192 195 200 206 219 247 271 285 291 291 291 297 304 309 316 319 316 314 316 316 316 316 314 309 307 310 312 313 315 317 319 319 318 316 315 314 313 313 313 311 311
242 221 200 186 181 177 175 174 173 171 168 166 164 163 164 162 160 159 159 159 158 158 158 158 160 159 156 155 158 162 164 166 169 171 171 174 177 177 177 177 178 180 186 191 194 197 204 220 242 262 277 285 290 293 295 298 303 310 316 318 317 317 319 319 319 318 315 309 308 311 312 314 318 320 319 318 318 316 315 314 314 314 314 313 312
220 198 184 177 171 166 165 165 164 162 160 159 157 157 157 157 157 158 158 157 156 155 156 158 161 160 155 153 158 163 166 168 170 171 173 175 176 176 176 176 178 183 188 191 193 198 210 234 255 271 280 285 290 297 300 300 303 308 315 320 321 321 323 324 323 319 314 312 312 312 312 316 320 320 318 318 318 317 315 314 316 315 314 314 313
191 178 170 164 157 152 152 153 151 151 152 152 151 151 151 152 153 154 154 153 153 153 154 157 158 156 153 153 158 163 167 169 171 172 173 175 175 175 174 176 180 184 188 189 191 200 217 239 257 269 278 286 295 302 304 306 309 310 315 322 326 327 329 330 326 320 318 318 315 313 315 320 320 318 318 319 319 317 316 316 317 317 316 315 315
155 150 148 146 143 140 141 143 143 143 144 145 146 146 146 146 146 147 148 148 149 149 150 152 152 152 153 156 161 164 165 167 170 171 172 174 174 174 175 178 181 183 185 186 189 203 221 240 257 269 279 289 299 305 309 312 314 314 317 323 328 332 335 334 329 327 326 323 318 316 321 323 319 316 318 319 319 318 318 317 318 319 318 317 318
129 131 132 132 134 135 136 138 140 141 141 141 140 139 139 140 142 145 146 148 150 151 151 150 151 153 155 158 161 163 163 165 168 170 171 173 174 174 176 178 179 180 182 184 192 208 226 243 259 270 282 292 300 307 312 315 315 317 320 323 328 336 341 339 335 332 328 323 320 323 327 324 319 317 319 320 320 320 319 319 320 320 320 319 320
114 119 122 123 126 129 132 134 134 135 137 138 137 136 137 139 143 146 147 148 150 150 150 150 152 155 157 158 159 161 163 165 168 171 172 173 174 174 175 176 176 177 180 185 196 214 232 249 264 274 285 295 302 307 312 315 317 318 319 322 331 342 345 341 336 332 327 324 325 329 329 324 319 319 321 322 323 322 322 322 322 323 321 321 323
106 110 113 116 119 123 127 129 130 133 137 137 137 137 138 139 141 144 146 146 147 148 149 152 154 157 159 159 160 161 163 166 169 171 172 172 172 172 172 173 174 177 182 189 202 220 240 258 272 280 287 296 304 310 314 317 318 317 319 327 337 342 342 340 336 332 329 329 331 331 329 324 321 320 323 325 326 325 324 324 324 324 323 323 324
Height
691 691 692 694 696 697 699 701 704 708 711 715 717 718 721 724 727 728 728 727 729 732 735 738 741 744 748 751 754 757 759 762 764 766 768 770 772 774 775 776 777 778 780 782 783 785 786 788 790 792 795 796 797 799 800 801 800 800 799 797 795 795 794 795 793 779 772 777 779 778 782 784 781 781 781 778 778 776 772 770 766 761 758 755 752
686 686 687 689 690 692 694 697 700 703 705 708 711 714 716 718 722 725 726 726 727 728 730 732 736 739 742 746 749 752 755 758 760 762 764 766 768 770 771 773 774 775 777 779 780 782 784 785 788 790 792 793 795 796 796 797 798 796 796 794 792 792 792 792 792 784 772 770 774 773 775 780 778 776 776 773 770 769 765 762 759 756 753 751 749
680 682 684 685 686 688 691 693 696 699 700 702 705 707 711 714 717 720 722 724 726 728 729 730 731 734 738 741 744 748 751 754 757 759 760 762 764 766 767 769 771 772 774 775 777 779 781 783 785 787 789 790 791 793 794 794 795 794 792 791 790 789 791 790 790 788 777 768 770 770 769 772 773 772 771 768 765 762 758 754 752 750 747 746 744
676 679 680 680 682 685 687 689 692 694 695 697 698 701 706 709 712 716 719 722 723 725 729 730 731 731 734 737 740 743 747 750 753 755 757 759 760 762 764 766 767 769 770 772 774 776 778 780 782 784 786 788 788 790 791 791 791 791 789 788 788 787 788 789 788 788 783 771 766 768 768 767 767 768 767 762 759 758 753 748 746 743 742 742 740
673 674 675 676 678 680 681 684 686 687 689 690 692 696 700 703 707 710 715 718 720 721 724 728 730 729 730 732 735 739 742 746 749 751 753 755 757 759 760 762 764 765 767 769 771 773 775 777 779 781 783 784 786 787 788 789 788 788 786 785 786 785 785 786 786 785 784 776 766 764 766 765 762 763 764 759 754 752 748 743 742 739 735 734 735
668 670 671 672 673 674 675 678 680 681 682 684 687 690 694 697 701 704 708 713 717 719 720 722 725 727 728 730 732 735 739 742 745 747 750 752 754 756 757 759 760 762 764 766 768 770 772 774 776 778 780 781 783 784 785 787 786 785 784 783 784 784 783 783 784 783 781 777 770 764 762 763 759 756 759 759 752 749 744 736 733 737 735 728 726
663 664 666 667 667 668 669 670 672 674 676 679 682 685 688 691 695 698 702 706 711 715 717 717 719 722 725 727 730 733 736 739 741 744 746 748 750 752 754 755 757 758 761 763 765 767 770 772 773 775 777 778 780 782 783 784 783 782 782 782 782 782 782 781 781 781 779 775 772 766 760 760 758 752 752 756 751 748 748 738 724 724 729 726 721
657 658 660 661 661 661 662 664 666 669 672 676 679 681 684 686 689 693 697 700 704 709 713 714 715 718 721 724 727 730 732 735 737 740 742 745 747 749 750 752 753 755 758 760 762 765 767 770 771 772 774 775 777 779 780 780 780 780 780 780 780 780 780 780 779 779 777 773 769 767 761 757 756 751 748 752 749 743 746 745 730 719 719 718 715
651 653 655 654 654 655 657 659 662 666 669 672 675 678 680 682 685 688 691 694 699 704 709 712 713 714 716 720 723 726 728 731 733 736 739 741 744 746 747 749 750 752 754 756 759 762 764 767 769 770 771 772 773 775 776 777 777 777 777 777 777 778 778 778 778 776 775 772 767 766 762 756 754 751 745 746 747 740 738 740 732 723 721 713 705
645 647 648 648 648 651 654 656 659 662 664 667 670 673 676 679 681 684 687 690 694 699 704 708 710 710 712 715 718 721 724 727 730 733 736 738 741 743 744 746 748 749 751 754 756 758 761 763 765 767 767 768 770 771 773 774 774 774 775 774 775 776 776 775 776 774 772 769 766 765 761 754 752 751 745 742 743 739 735 734 728 723 722 714 700
638 639 640 641 644 647 649 652 654 656 658 661 665 668 671 674 676 680 683 687 690 694 698 702 705 707 708 710 713 717 720 723 727 731 735 737 739 740 742 743 746 747 749 751 753 755 757 760 762 764 764 765 766 768 769 770 771 771 772 773 773 774 774 773 773 772 770 767 764 763 760 753 749 749 746 741 740 736 733 732 728 723 719 714 701
633 634 634 636 640 642 644 646 648 650 653 656 659 663 666 669 672 675 679 682 686 690 693 697 700 703 706 708 710 713 716 720 725 728 732 735 736 738 739 741 742 744 746 748 750 752 754 757 759 760 761 762 763 764 765 766 767 768 768 770 770 770 771 771 769 769 768 765 761 758 757 752 747 746 745 742 739 735 731 727 725 722 716 711 702
628 629 631 634 636 638 640 642 643 645 648 651 655 659 662 665 667 670 674 678 682 685 689 693 696 699 702 705 707 710 714 718 722 726 729 732 734 735 736 738 739 740 743 745 746 749 751 754 756 756 757 759 759 760 762 762 763 764 765 766 767 767 767 767 766 766 765 763 758 754 753 752 747 743 743 743 739 734 729 723 719 718 712 706 699
625 626 629 631 633 635 637 638 640 641 645 648 652 655 658 660 664 667 671 675 678 681 685 689 692 695 698 701 704 707 711 715 719 723 726 729 731 732 733 735 736 737 739 741 743 746 748 750 752 753 754 755 756 757 758 758 759 760 761 761 761 762 762 762 762 762 761 760 756 750 749 749 745 741 740 740 738 733 727 720 714 711 705 698 693
623 624 626 628 629 631 632 633 635 638 642 645 648 651 654 657 661 664 667 670 673 677 681 684 687 691 694 698 701 704 707 712 716 720 723 726 728 730 731 732 733 735 737 739 741 744 746 748 749 751 752 753 755 756 756 756 757 757 757 758 757 757 757 757 757 757 756 755 752 747 745 744 742 739 737 736 734 730 726 719 712 708 701 693 688
621 622 624 625 626 627 628 630 633 635 639 642 645 648 651 654 657 660 664 668 671 674 677 680 683 687 691 694 697 700 704 708 712 716 719 723 725 727 728 730 731 733 735 738 741 743 745 746 747 750 751 752 754 755 755 755 755 755 755 754 754 754 753 752 753 752 751 749 747 744 741 739 738 735 734 733 730 726 722 715 709 706 701 693 684
620 621 621 621 622 623 625 627 630 633 636 638 641 644 647 651 654 657 660 664 667 670 673 677 680 683 686 690 692 696 700 704 708 712 715 719 722 723 725 727 729 732 735 738 740 742 743 745 746 748 750 751 753 754 755 754 754 754 753 752 751 750 748 748 748 747 746 745 743 740 737 735 733 731 729 728 725 723 720 712 705 703 700 691 681
618 619 619 620 621 622 624 625 627 629 631 633 636 640 644 648 651 654 657 660 663 667 670 674 678 680 683 686 689 692 696 700 705 708 711 715 717 719 722 725 728 731 734 736 738 739 741 742 745 747 749 750 752 753 753 753 753 753 752 750 748 746 745 745 744 743 742 740 737 735 733 730 728 725 723 722 720 720 717 709 703 702 697 689 680
617 618 619 620 622 623 624 625 627 628 630 632 636 639 643 646 648 652 655 658 662 666 670 673 676 679 681 684 687 690 693 698 702 705 708 711 714 716 719 723 726 730 732 733 735 736 737 739 742 745 746 748 750 750 751 751 751 751 750 748 746 744 744 743 741 739 737 734 732 729 727 725 723 720 717 715 714 713 711 706 702 699 694 687 680
617 617 618 619 620 622 623 625 626 628 631 635 638 641 643 645 647 650 654 657 661 665 668 672 675 678 680 683 685 688 692 695 699 702 705 707 709 711 715 719 723 726 728 730 731 731 733 735 738 741 743 745 746 747 748 748 748 748 748 746 744 743 742 741 739 736 733 730 728 725 721 718 717 715 712 709 708 707 704 701 698 695 691 684 678
619 618 618 618 618 619 621 624 626 628 631 634 638 641 642 644 645 648 651 655 659 663 667 671 675 677 679 682 684 687 690 693 697 700 703 704 705 707 710 714 718 721 724 726 727 727 729 732 735 737 739 741 742 743 744 744 745 744 744 743 742 741 741 739 736 734 731 727 724 720 716 713 711 709 707 704 702 701 698 695 692 689 686 681 675
620 619 618 618 618 618 619 621 624 627 630 633 635 638 640 642 644 646 649 652 656 661 665 669 673 675 678 680 682 684 687 691 694 697 700 702 703 704 707 710 714 717 720 722 722 724 726 728 731 733 735 737 738 740 740 740 741 740 739 739 739 738 738 736 733 730 727 724 720 716 712 709 705 703 701 698 696 694 692 689 687 684 681 677 673
620 619 618 617 617 619 620 621 624 626 629 631 634 636 638 640 642 645 647 649 653 657 661 665 668 671 675 678 680 682 685 687 690 694 697 700 702 703 706 709 712 714 716 717 718 720 722 725 728 729 731 733 734 736 736 736 736 735 735 735 735 735 734 731 729 727 723 720 717 712 708 705 701 697 695 692 689 688 685 682 680 678 674 669 666
621 619 617 617 617 617 619 622 624 626 628 631 633 635 636 638 641 643 645 647 650 654 657 660 664 667 670 674 678 681 683 686 689 692 694 697 700 702 705 708 711 712 713 714 714 716 719 722 724 726 727 729 730 731 732 732 731 731 731 732 731 731 729 727 725 723 720 716 713 708 704 701 697 693 690 686 684 681 678 674 671 669 666 661 656
620 617 616 615 615 615 617 619 621 625 628 630 631 632 633 635 637 640 642 644 646 650 653 657 660 663 667 671 675 679 681 684 688 692 695 697 699 702 705 707 709 710 711 711 712 714 716 719 721 723 724 725 726 727 727 727 727 726 727 727 727 726 725 723 721 719 716 713 709 704 699 696 693 689 685 682 679 674 670 666 661 659 656 651 645
618 615 613 612 612 613 614 616 618 622 626 629 630 629 628 629 631 634 637 639 642 646 650 653 657 660 663 666 671 675 678 681 685 688 692 696 699 701 704 706 708 709 708 709 710 712 715 717 718 719 720 721 722 723 723 723 722 722 723 723 722 722 720 719 717 715 712 709 705 701 696 692 688 684 681 677 673 669 665 660 653 649 647 643 636
615 613 611 610 609 610 611 612 615 618 622 625 628 629 628 627 627 628 630 633 637 641 643 647 651 654 656 660 665 670 673 676 679 682 685 690 694 698 701 703 705 706 705 706 708 710 712 714 715 715 717 718 719 720 720 719 718 718 719 719 718 718 717 715 714 712 709 706 702 697 693 688 684 680 676 673 668 664 661 657 650 643 640 637 630
612 610 608 608 607 607 607 609 611 614 617 619 622 624 626 627 626 624 623 624 627 629 632 635 639 642 646 651 657 663 666 668 670 673 675 680 685 690 695 698 699 701 701 703 706 708 710 711 711 713 714 715 717 717 716 715 715 714 715 715 714 713 712 711 710 709 706 703 699 694 689 685 681 677 673 669 664 660 657 653 647 640 635 632 625
609 607 606 606 605 605 605 606 608 611 613 616 617 619 622 625 627 627 627 626 624 624 625 627 630 634 639 642 645 651 656 659 663 667 670 674 678 683 688 692 694 696 699 701 703 705 707 708 709 710 712 713 714 714 713 711 711 711 711 711 711 709 708 707 706 704 702 700 696 692 687 682 677 674 670 665 660 656 653 649 643 636 631 627 620
606 604 604 604 604 603 603 603 604 607 610 613 615 617 619 621 624 626 628 630 630 629 628 627 628 632 635 637 639 643 647 653 660 667 671 675 677 680 684 688 691 694 697 699 701 703 704 705 706 708 710 711 711 710 709 708 707 707 707 707 707 705 703 703 702 701 699 697 693 689 685 680 675 671 667 662 656 651 648 644 639 633 628 623 615
602 600 600 600 600 601 601 601 602 604 606 609 612 614 616 618 620 623 625 627 630 632 633 633 633 633 634 635 639 643 648 653 660 666 670 674 677 680 683 685 688 690 693 696 698 700 701 703 704 706 707 708 708 707 706 706 705 705 704 703 702 701 700 700 699 698 696 693 690 686 683 679 674 669 664 660 653 647 643 639 635 630 624 619 612
598 595 594 595 596 598 599 599 599 600 602 605 608 610 613 615 617 620 624 626 627 630 632 634 636 638 637 636 638 642 648 654 659 664 669 673 676 679 681 683 684 687 689 691 694 696 699 701 703 704 705 705 704 704 704 703 703 703 702 700 698 697 697 697 696 695 692 689 686 683 680 676 671 666 661 657 651 644 638 634 630 625 619 613 608
593 590 589 591 593 595 596 596 595 595 596 599 601 605 608 610 612 616 620 624 627 629 631 632 634 637 639 639 639 641 646 652 658 663 668 672 675 678 680 681 682 684 685 687 690 693 696 699 701 702 702 701 701 701 701 701 700 699 698 696 695 694 694 694 693 690 688 685 683 680 676 672 668 663 658 653 648 641 635 629 624 620 614 608 602
589 586 585 586 588 590 590 590 590 589 590 592 595 598 602 604 608 611 615 619 622 625 628 630 632 635 637 639 640 642 645 650 656 661 666 671 674 677 679 681 682 682 682 683 685 689 693 696 698 699 698 698 698 698 698 698 697 696 694 693 692 692 691 691 689 686 683 681 679 675 672 668 664 659 654 649 644 638 632 626 621 615 610 603 596
585 582 580 581 582 583 584 585 585 585 586 587 590 593 597 601 605 607 609 611 615 618 622 626 629 632 635 638 640 642 645 649 654 659 665 669 673 676 678 680 681 681 680 680 682 685 689 693 695 695 695 694 695 696 695 695 694 692 691 690 689 689 689 687 685 682 679 677 674 671 668 664 660 656 651 645 640 633 627 622 617 611 605 599 592
579 576 575 575 575 576 578 579 580 581 582 583 586 590 594 598 602 604 607 609 611 614 618 622 627 631 634 637 640 642 644 648 652 657 662 667 671 674 675 677 678 679 679 679 679 682 687 690 692 692 691 692 692 693 692 691 690 689 688 687 687 687 686 683 681 678 676 674 670 667 664 660 656 652 647 641 635 630 624 617 612 606 601 595 588
575 572 570 569 569 571 573 574 576 577 578 581 584 588 592 595 598 601 604 606 608 611 615 619 623 628 632 636 639 641 644 648 652 656 662 666 670 672 673 676 678 678 678 678 678 681 684 687 688 688 688 689 690 690 689 688 687 686 685 685 685 684 682 680 677 675 672 669 666 663 660 656 652 648 643 636 630 625 620 614 607 601 595 590 584
570 567 565 564 565 566 568 569 571 574 576 579 582 585 588 592 595 597 600 602 605 608 611 615 618 621 625 630 635 639 643 647 651 655 660 663 667 670 673 675 677 677 678 678 679 680 683 684 685 685 686 686 687 687 686 685 684 683 683 683 682 680 678 676 673 671 668 665 662 659 656 652 648 644 639 632 626 620 615 610 604 596 589 584 579
562 560 560 560 560 561 562 564 567 570 572 575 578 581 584 587 590 592 595 598 601 604 607 611 614 617 619 623 628 633 638 642 646 650 654 658 663 668 671 674 675 676 678 679 679 680 682 682 682 683 683 684 684 684 683 682 682 681 681 681 679 677 674 671 669 666 664 662 658 655 652 649 644 639 634 628 623 617 611 605 600 593 585 578 572
556 554 553 553 554 555 556 560 562 564 567 570 573 576 579 581 584 587 590 593 596 600 603 607 611 614 617 619 621 625 630 636 641 645 650 655 661 665 668 671 673 675 677 678 679 680 681 681 681 681 681 681 681 681 681 680 680 680 680 679 676 673 671 668 666 663 661 658 655 652 649 645 640 635 629 624 619 614 608 601 595 589 582 575 568
549 548 546 547 549 550 552 555 557 559 562 565 568 571 574 576 579 583 586 589 593 597 602 606 610 614 616 618 620 623 627 632 638 643 648 654 658 662 665 668 670 673 675 677 678 679 679 679 679 679 678 679 679 679 679 679 679 679 678 675 673 670 667 665 663 660 658 655 652 649 646 642 637 631 625 620 615 610 604 598 591 584 578 571 564
543 541 540 542 544 546 548 551 553 556 560 562 565 567 570 573 577 580 583 587 592 596 601 607 611 614 617 619 621 624 627 632 638 643 648 652 656 659 662 665 668 671 674 675 677 678 677 677 676 676 676 677 677 677 677 677 677 676 674 672 669 667 665 663 660 658 655 653 650 647 643 638 633 627 622 617 612 606 600 594 588 581 573 566 560
537 535 535 537 539 541 543 547 550 553 557 559 562 565 568 571 575 578 582 587 591 595 600 606 610 614 617 620 621 624 628 633 638 642 646 650 653 656 660 663 666 669 672 674 676 676 675 674 674 674 674 675 675 675 676 676 675 674 671 669 666 664 662 660 657 655 653 651 647 644 639 634 629 624 619 614 609 603 597 590 583 577 570 563 556
531 531 531 533 535 537 541 544 547 551 554 557 561 564 567 570 574 577 581 586 591 595 599 604 608 612 615 618 622 625 630 634 639 642 645 648 651 654 658 661 664 668 671 673 674 673 672 672 672 672 672 673 674 674 674 674 672 670 668 666 664 662 660 658 655 653 651 648 644 639 634 630 626 621 616 611 606 600 594 587 580 573 566 559 552
526 526 528 530 532 535 539 542 545 549 553 556 560 563 566 570 573 577 581 585 590 595 600 604 607 610 613 616 621 626 630 635 638 641 643 646 650 653 656 659 663 667 670 671 671 670 670 669 669 670 671 672 673 673 672 671 669 668 666 664 662 659 657 656 654 652 649 645 640 635 631 626 623 619 614 609 604 598 591 584 578 571 563 556 549
522 523 525 527 530 533 536 540 544 547 551 555 558 562 566 570 574 577 582 586 590 596 600 604 607 610 613 616 621 626 631 635 638 640 643 646 649 653 656 659 663 666 668 669 668 667 667 667 668 669 670 671 671 671 669 668 667 665 663 662 660 658 656 655 652 649 647 643 638 633 629 625 621 617 612 607 602 596 589 582 576 569 562 554 546
519 521 524 526 529 532 536 539 543 547 551 555 559 563 567 572 576 580 584 587 591 596 600 604 607 610 613 617 622 626 631 635 637 640 643 646 649 653 656 659 663 665 666 665 665 664 665 666 667 668 669 669 669 668 666 665 664 662 661 659 658 656 654 653 650 647 644 640 635 631 628 624 620 615 610 605 600 594 587 580 573 566 559 552 544
519 522 525 527 530 534 537 541 545 549 553 557 562 566 570 574 578 582 586 589 593 597 601 605 608 612 615 619 623 626 630 634 637 641 644 647 650 653 657 660 662 663 662 662 662 663 664 666 667 667 668 667 666 665 663 662 660 659 658 657 656 654 652 650 648 644 640 636 633 630 628 623 619 614 609 604 598 592 585 578 571 564 557 549 542
522 525 527 530 533 536 539 543 547 551 555 559 563 568 572 576 579 583 587 591 595 598 601 604 608 612 616 620 623 627 630 634 638 641 645 648 651 654 657 659 660 660 659 660 661 662 664 665 666 666 666 665 663 662 660 659 657 656 655 654 653 651 650 647 645 641 637 634 631 629 625 621 617 612 607 602 596 590 583 576 569 562 555 548 540
527 529 531 534 536 539 543 546 550 554 557 561 565 569 574 577 581 585 588 592 596 600 602 605 608 612 616 619 623 627 630 634 638 642 645 648 651 654 656 656 657 657 658 659 660 662 663 664 665 664 664 663 661 660 658 656 655 654 653 652 650 648 646 644 641 638 635 632 630 627 623 618 614 610 605 600 594 588 581 575 568 560 553 546 539
532 534 536 538 540 543 546 550 553 557 560 564 567 571 575 579 583 587 591 594 597 601 604 607 611 614 618 621 624 627 631 635 639 643 646 649 651 652 653 654 655 656 657 659 660 662 662 663 663 662 662 661 659 657 655 654 653 652 651 650 648 646 644 642 639 636 633 631 628 624 620 616 612 607 603 598 592 586 579 573 567 560 553 546 539